Weather History for KBWG - July, 2013

Change the Weather History Date:

Sunday, July 7, 2013

  Actual Average Record
Temperature  
Mean Temperature 76 °F 79 °F  
Max Temperature 88 °F 89 °F 104 °F (1874)
Min Temperature 64 °F 68 °F 50 °F (1972)
Degree Days  
Heating Degree Days 0 0  
Month to date heating degree days 0 0  
Since 1 June heating degree days 0 5  
Since 1 July heating degree days 0 0  
Cooling Degree Days 11 14  
Month to date cooling degree days 55 93  
Year to date cooling degree days 602 551  
Since 1 June cooling degree days 389 398  
Growing Degree Days 26 (Base 50)    
Moisture  
Dew Point 66 °F    
Average Humidity 69    
Maximum Humidity 93    
Minimum Humidity 45    
Precipitation  
Precipitation 0.02 in 0.14 in 2.20 in (1895)
Month to date precipitation 6.27 1.00  
Year to date precipitation 33.17 27.13  
Snow  
Snow 0.00 in 0.00 in 0.00 in ()
Month to date snowfall 0.0 0.0  
Since 1 June snowfall 0.0 0.0  
Since 1 July snowfall 0.0 0.0  
Snow Depth 0.00 in    
Sea Level Pressure  
Sea Level Pressure 30.10 in    
Wind  
Wind Speed 2 mph (SW)    
Max Wind Speed 8 mph    
Max Gust Speed 14 mph    
Visibility 8 miles    
Events Fog , Rain    
T = Trace of Precipitation, MM = Missing Value Source: NWS Daily Summary

Daily Weather History Graph

Daily Weather History Graph

Search for Another Location

Airport or City:

Trip Planner

Search our weather history database for the weather conditions in past years. The results will help you decide how hot, cold, wet, or windy it might be!

Date:

Astronomy

Jul. 07, 2013 Rise Set
Actual Time 5:33 AM CDT 8:08 PM CDT
Civil Twilight 5:02 AM CDT 8:38 PM CDT
Nautical Twilight 4:24 AM CDT 9:16 PM CDT
Astronomical Twilight 3:42 AM CDT 9:58 PM CDT
Moon 5:07 AM CDT (7/7) 7:33 PM CDT (7/7)
Length of Visible Light 15h 35m
Length of Day
14h 34m
Waning Crescent, 0% of the Moon is Illuminated
Jul 7
Waning Crescent
Jul 8
New
Jul 15
First Quarter
Jul 22
Full
Jul 29
Last Quarter

Hourly Weather History & Observations

Time (CDT) Temp. Heat Index Dew Point Humidity Pressure Visibility Wind Dir Wind Speed Gust Speed Precip Events Conditions
12:34 AM 69.8 °F - 66.2 °F 88% 30.12 in 10.0 mi WSW 6.9 mph - N/A   Overcast
12:53 AM 70.0 °F - 66.0 °F 87% 30.09 in 4.0 mi Calm Calm - 0.05 in Rain Light Rain
1:11 AM 69.8 °F - 66.2 °F 88% 30.09 in 9.0 mi SSE 4.6 mph - 0.02 in Rain Light Rain
1:49 AM 69.8 °F - 66.2 °F 88% 30.06 in 10.0 mi SSE 6.9 mph - 0.02 in   Scattered Clouds
1:53 AM 69.1 °F - 66.0 °F 90% 30.05 in 10.0 mi South 6.9 mph - 0.02 in   Partly Cloudy
2:53 AM 68.0 °F - 64.9 °F 90% 30.05 in 10.0 mi SW 3.5 mph - N/A   Mostly Cloudy
3:53 AM 66.9 °F - 64.0 °F 90% 30.06 in 10.0 mi Calm Calm - N/A   Clear
4:53 AM 66.0 °F - 64.0 °F 93% 30.07 in 10.0 mi Calm Calm - N/A   Clear
5:33 AM 64.4 °F - 62.6 °F 94% 30.10 in 1.8 mi Calm Calm - N/A   Clear
5:37 AM 64.4 °F - 62.6 °F 94% 30.10 in 0.8 mi Calm Calm - N/A   Clear
5:44 AM 64.4 °F - 62.6 °F 94% 30.10 in 0.2 mi Calm Calm - N/A Fog Fog
5:53 AM 64.9 °F - 63.0 °F 93% 30.09 in 0.5 mi Calm Calm - N/A Fog Fog
5:59 AM 64.4 °F - 62.6 °F 94% 30.10 in 1.0 mi Calm Calm - N/A   Clear
6:17 AM 64.4 °F - 62.6 °F 94% 30.11 in 0.8 mi Calm Calm - N/A   Clear
6:26 AM 66.2 °F - 64.4 °F 94% 30.11 in 1.5 mi Calm Calm - N/A   Clear
6:29 AM 66.2 °F - 64.4 °F 94% 30.11 in 3.0 mi Calm Calm - N/A   Clear
6:53 AM 66.9 °F - 64.9 °F 93% 30.11 in 10.0 mi Calm Calm - N/A   Clear
7:53 AM 71.1 °F - 64.0 °F 78% 30.12 in 10.0 mi Calm Calm - N/A   Mostly Cloudy
8:53 AM 73.9 °F - 66.0 °F 76% 30.14 in 10.0 mi SSW 3.5 mph - N/A   Mostly Cloudy
9:07 AM 73.4 °F - 66.2 °F 78% 30.14 in 10.0 mi Calm Calm - N/A   Mostly Cloudy
9:18 AM 75.2 °F - 66.2 °F 73% 30.14 in 10.0 mi SSW 3.5 mph - N/A   Mostly Cloudy
9:53 AM 77.0 °F - 68.0 °F 74% 30.13 in 10.0 mi SW 6.9 mph - N/A   Scattered Clouds
10:53 AM 80.1 °F 82.9 °F 69.1 °F 69% 30.13 in 10.0 mi SW 4.6 mph - N/A   Mostly Cloudy
11:26 AM 80.6 °F 83.9 °F 69.8 °F 70% 30.14 in 10.0 mi Calm Calm - N/A   Scattered Clouds
11:53 AM 82.0 °F 85.5 °F 69.1 °F 65% 30.12 in 10.0 mi West 3.5 mph - N/A   Scattered Clouds
12:53 PM 84.0 °F 87.0 °F 68.0 °F 58% 30.11 in 10.0 mi NW 4.6 mph - N/A   Partly Cloudy
1:53 PM 84.9 °F 87.1 °F 66.0 °F 53% 30.09 in 10.0 mi Variable 3.5 mph - N/A   Scattered Clouds
2:53 PM 87.1 °F 89.2 °F 66.0 °F 49% 30.08 in 10.0 mi Variable 4.6 mph - N/A   Mostly Cloudy
3:53 PM 87.1 °F 88.3 °F 64.0 °F 46% 30.06 in 10.0 mi WSW 5.8 mph - N/A   Scattered Clouds
4:53 PM 86.0 °F 86.8 °F 63.0 °F 46% 30.05 in 10.0 mi Calm Calm - N/A   Partly Cloudy
5:53 PM 87.1 °F 88.9 °F 64.9 °F 48% 30.04 in 10.0 mi Calm Calm - N/A   Mostly Cloudy
6:53 PM 87.1 °F 89.2 °F 66.0 °F 49% 30.05 in 10.0 mi NNW 4.6 mph - N/A   Clear
7:53 PM 84.0 °F 87.0 °F 68.0 °F 58% 30.07 in 10.0 mi North 3.5 mph - N/A   Partly Cloudy
8:53 PM 80.1 °F 82.9 °F 69.1 °F 69% 30.09 in 10.0 mi Calm Calm - N/A   Clear
9:53 PM 75.9 °F - 70.0 °F 82% 30.11 in 10.0 mi Calm Calm - N/A   Clear
10:53 PM 73.9 °F - 70.0 °F 87% 30.11 in 10.0 mi Calm Calm - N/A   Clear
11:53 PM 72.0 °F - 69.1 °F 91% 30.12 in 10.0 mi Calm Calm - N/A   Clear